GW4339 Weather Reports


time (UTC)temp
C
wind
direction
speed
KPH
gust
KPH
rain 1hr
cm
rain 24hr
cm
rain mn
cm
humidity
%
barometer
mb
20260510204617 28 266 0.0 6.4 0.00 0.00 0.00 43 1014.2
20260510204114 28 325 0.0 4.8 0.00 0.00 0.00 41 1014.1
20260510204042 28 303 4.8 9.7 0.00 0.00 0.00 40 1018.2
20260510203610 28 328 6.4 6.4 0.00 0.00 0.00 38 1014.0
20260510203119 28 316 3.2 6.4 0.00 0.00 0.00 38 1018.2
20260510203108 28 208 3.2 4.8 0.00 0.00 0.00 39 1014.2
20260510202606 28 76 4.8 6.4 0.00 0.00 0.00 37 1014.1
20260510202057 28 86 1.6 6.4 0.00 0.00 0.00 37 1014.0
20260510202027 28 287 3.2 6.4 0.00 0.00 0.00 39 1018.3
20260510201554 28 303 4.8 6.4 0.00 0.00 0.00 39 1014.2
20260510201051 28 262 3.2 11.3 0.00 0.00 0.00 39 1014.1
20260510201021 29 337 1.6 4.8 0.00 0.00 0.00 38 1018.4
20260510200547 29 296 0.0 1.6 0.00 0.00 0.00 38 1014.3
20260510200050 28 335 1.6 4.8 0.00 0.00 0.00 39 1018.5
20260510200045 28 256 0.0 1.6 0.00 0.00 0.00 40 1014.2
20260510195543 28 311 1.6 4.8 0.00 0.00 0.00 37 1014.4
20260510195038 28 284 3.2 9.7 0.00 0.00 0.00 40 1018.7
20260510194533 28 276 0.0 3.2 0.00 0.00 0.00 38 1014.7
20260510194030 29 288 6.4 9.7 0.00 0.00 0.00 38 1014.7
20260510194026 29 290 1.6 6.4 0.00 0.00 0.00 38 1018.9
20260510193525 30 359 1.6 3.2 0.00 0.00 0.00 37 1014.7
20260510193021 29 94 1.6 3.2 0.00 0.00 0.00 37 1014.7
20260510193018 28 224 1.6 3.2 0.00 0.00 0.00 39 1019.0
20260510192515 28 246 0.0 3.2 0.00 0.00 0.00 41 1015.0
20260510192049 28 293 4.8 17.7 0.00 0.00 0.00 39 1019.3
20260510192012 28 266 4.8 14.5 0.00 0.00 0.00 41 1015.2
20260510191509 27 288 0.0 9.7 0.00 0.00 0.00 45 1015.0
20260510191101 28 251 3.2 9.7 0.00 0.00 0.00 40 1019.2
20260510191005 28 281 6.4 6.4 0.00 0.00 0.00 40 1015.0
20260510190503 28 276 3.2 9.7 0.00 0.00 0.00 39 1015.2
20260510190033 28 256 3.2 6.4 0.00 0.00 0.00 41 1019.3
20260510185959 28 249 1.6 4.8 0.00 0.00 0.00 41 1015.2
20260510185456 28 347 3.2 4.8 0.00 0.00 0.00 41 1015.0
20260510185026 28 272 4.8 11.3 0.00 0.00 0.00 41 1019.4
20260510184953 27 280 1.6 9.7 0.00 0.00 0.00 41 1015.4
20260510184450 28 15 3.2 4.8 0.00 0.00 0.00 39 1015.5
20260510184017 28 243 1.6 4.8 0.00 0.00 0.00 40 1019.5
20260510183945 28 42 1.6 3.2 0.00 0.00 0.00 43 1015.3
20260510183442 28 272 4.8 12.9 0.00 0.00 0.00 41 1015.2
20260510183110 27 195 1.6 6.4 0.00 0.00 0.00 40 1019.3
20260510182942 27 282 1.6 3.2 0.00 0.00 0.00 39 1015.1
20260510182438 27 293 3.2 4.8 0.00 0.00 0.00 40 1015.3
20260510182042 27 249 4.8 9.7 0.00 0.00 0.00 40 1019.5
20260510181933 27 261 6.4 9.7 0.00 0.00 0.00 40 1015.4
20260510181432 27 239 3.2 6.4 0.00 0.00 0.00 40 1015.4
20260510181101 27 264 1.6 6.4 0.00 0.00 0.00 41 1019.6
20260510180928 27 155 0.0 6.4 0.00 0.00 0.00 41 1015.7
20260510180425 27 262 0.0 3.2 0.00 0.00 0.00 42 1015.6
20260510180034 27 285 3.2 9.7 0.00 0.00 0.00 44 1019.8
20260510175922 27 252 9.7 12.9 0.00 0.00 0.00 44 1015.6
20260510175418 26 12 3.2 4.8 0.00 0.00 0.00 42 1015.6
20260510175025 27 267 4.8 14.5 0.00 0.00 0.00 45 1019.7
20260510174914 27 224 6.4 12.9 0.00 0.00 0.00 45 1015.6
20260510174412 27 339 1.6 3.2 0.00 0.00 0.00 43 1015.3
20260510174115 27 260 1.6 4.8 0.00 0.00 0.00 44 1019.6
20260510173908 27 296 1.6 4.8 0.00 0.00 0.00 44 1015.4
20260510173404 27 257 1.6 3.2 0.00 0.00 0.00 45 1015.5
20260510173110 27 326 1.6 4.8 0.00 0.00 0.00 45 1019.8
20260510172900 27 184 3.2 3.2 0.00 0.00 0.00 46 1015.6
20260510172356 27 245 3.2 3.2 0.00 0.00 0.00 43 1015.7
20260510172041 27 243 1.6 4.8 0.00 0.00 0.00 44 1020.0
20260510171852 27 286 0.0 4.8 0.00 0.00 0.00 45 1015.8
20260510171350 27 262 0.0 3.2 0.00 0.00 0.00 46 1015.7
20260510171035 26 268 3.2 6.4 0.00 0.00 0.00 48 1020.1
20260510170847 27 232 3.2 4.8 0.00 0.00 0.00 50 1015.9
20260510170343 26 270 9.7 11.3 0.00 0.00 0.00 48 1015.8
20260510170024 25 249 4.8 11.3 0.00 0.00 0.00 48 1020.0
20260510165838 25 260 1.6 11.3 0.00 0.00 0.00 47 1015.9
20260510165335 26 269 8.0 12.9 0.00 0.00 0.00 47 1015.8
20260510165054 26 267 3.2 6.4 0.00 0.00 0.00 48 1020.0
20260510164833 26 274 1.6 3.2 0.00 0.00 0.00 49 1015.7
20260510164330 26 1 4.8 6.4 0.00 0.00 0.00 45 1015.8
20260510164047 27 279 1.6 6.4 0.00 0.00 0.00 45 1020.1
20260510163829 27 259 0.0 0.0 0.00 0.00 0.00 44 1015.9
20260510163326 26 209 3.2 6.4 0.00 0.00 0.00 46 1016.0
20260510163049 26 275 0.0 1.6 0.00 0.00 0.00 46 1020.2
20260510162825 26 303 1.6 3.2 0.00 0.00 0.00 48 1016.0
20260510162323 25 307 3.2 9.7 0.00 0.00 0.00 46 1016.2
20260510162020 25 269 3.2 11.3 0.00 0.00 0.00 46 1020.4
20260510161818 25 312 1.6 9.7 0.00 0.00 0.00 45 1016.1
20260510161315 25 222 3.2 6.4 0.00 0.00 0.00 46 1016.2
20260510161052 24 266 4.8 12.9 0.00 0.00 0.00 46 1020.4
20260510160812 24 252 3.2 9.7 0.00 0.00 0.00 46 1016.5
20260510160308 25 213 6.4 9.7 0.00 0.00 0.00 49 1016.3
20260510160043 25 286 4.8 9.7 0.00 0.00 0.00 48 1020.6
20260510155802 25 1 8.0 9.7 0.00 0.00 0.00 48 1016.6
20260510155300 25 175 1.6 3.2 0.00 0.00 0.00 48 1016.4
20260510155034 24 273 3.2 12.9 0.00 0.00 0.00 51 1020.6
20260510154756 24 265 8.0 11.3 0.00 0.00 0.00 50 1016.4
20260510154252 25 310 0.0 4.8 0.00 0.00 0.00 55 1016.3
20260510154028 25 20 1.6 6.4 0.00 0.00 0.00 55 1020.7
20260510153752 25 240 0.0 4.8 0.00 0.00 0.00 55 1016.6
20260510153248 24 288 1.6 4.8 0.00 0.00 0.00 56 1016.4
20260510153044 25 250 3.2 4.8 0.00 0.00 0.00 55 1020.5
20260510152745 25 317 1.6 6.4 0.00 0.00 0.00 55 1016.2
20260510152242 24 23 3.2 3.2 0.00 0.00 0.00 55 1016.2
20260510152057 23 279 4.8 11.3 0.00 0.00 0.00 60 1020.6
20260510151738 23 264 6.4 6.4 0.00 0.00 0.00 60 1016.4
20260510151237 24 284 8.0 11.3 0.00 0.00 0.00 58 1016.4
20260510151046 24 184 1.6 6.4 0.00 0.00 0.00 59 1020.5
20260510150726 24 77 1.6 3.2 0.00 0.00 0.00 58 1016.3
20260510150221 24 120 1.6 3.2 0.00 0.00 0.00 58 1016.2
20260510150039 24 332 3.2 6.4 0.00 0.00 0.00 58 1020.3
20260510145718 24 180 1.6 6.4 0.00 0.00 0.00 59 1016.1
20260510145214 24 31 1.6 3.2 0.00 0.00 0.00 54 1016.2
20260510145033 23 283 1.6 4.8 0.00 0.00 0.00 53 1020.4
20260510144710 23 81 1.6 3.2 0.00 0.00 0.00 54 1016.1
20260510144208 23 293 3.2 6.4 0.00 0.00 0.00 57 1016.0
20260510144026 23 277 3.2 4.8 0.00 0.00 0.00 59 1020.3
20260510143702 23 259 4.8 6.4 0.00 0.00 0.00 59 1016.1
20260510143159 23 357 3.2 4.8 0.00 0.00 0.00 60 1016.1
20260510143016 23 260 1.6 3.2 0.00 0.00 0.00 62 1020.1
20260510142655 23 273 1.6 6.4 0.00 0.00 0.00 60 1016.1
20260510142152 22 44 1.6 3.2 0.00 0.00 0.00 65 1015.8
20260510142113 23 310 1.6 4.8 0.00 0.00 0.00 63 1020.0
20260510141649 23 258 0.0 3.2 0.00 0.00 0.00 63 1015.7
20260510141147 23 219 0.0 1.6 0.00 0.00 0.00 62 1015.9
20260510141047 22 287 1.6 3.2 0.00 0.00 0.00 65 1020.0
20260510140644 22 276 0.0 3.2 0.00 0.00 0.00 64 1015.9
20260510140142 22 283 1.6 3.2 0.00 0.00 0.00 67 1015.8
20260510140045 22 260 1.6 3.2 0.00 0.00 0.00 69 1019.9
20260510135638 22 258 1.6 3.2 0.00 0.00 0.00 68 1015.7
20260510135134 21 250 0.0 1.6 0.00 0.00 0.00 70 1015.8
20260510135039 21 281 1.6 3.2 0.00 0.00 0.00 70 1020.0
20260510134631 21 273 1.6 3.2 0.00 0.00 0.00 71 1015.8
20260510134129 21 270 0.0 1.6 0.00 0.00 0.00 70 1015.8
20260510134031 21 273 1.6 3.2 0.00 0.00 0.00 70 1020.1
20260510133625 21 274 0.0 3.2 0.00 0.00 0.00 70 1015.9
20260510133120 20 293 0.0 1.6 0.00 0.00 0.00 73 1015.8
20260510133045 20 263 0.0 1.6 0.00 0.00 0.00 73 1020.0
20260510132617 20 269 0.0 1.6 0.00 0.00 0.00 73 1015.8
20260510132115 20 187 0.0 0.0 0.00 0.00 0.00 71 1016.0
20260510132054 19 257 0.0 1.6 0.00 0.00 0.00 74 1020.1
20260510131612 19 263 1.6 3.2 0.00 0.00 0.00 75 1016.0
20260510131109 18 268 0.0 3.2 0.00 0.00 0.00 76 1016.0
20260510131046 18 270 1.6 3.2 0.00 0.00 0.00 78 1020.3
20260510130605 18 264 1.6 4.8 0.00 0.00 0.00 77 1016.1
20260510130059 18 273 0.0 1.6 0.00 0.00 0.00 79 1020.1
20260510125559 18 270 1.6 3.2 0.00 0.00 0.00 80 1015.9
20260510125055 17 228 0.0 3.2 0.00 0.00 0.00 81 1016.2
20260510125029 17 266 1.6 3.2 0.00 0.00 0.00 83 1020.1
20260510124552 17 337 0.0 1.6 0.00 0.00 0.00 84 1015.8
20260510124049 17 235 0.0 1.6 0.00 0.00 0.00 87 1016.0
20260510124023 16 291 0.0 3.2 0.00 0.00 0.00 88 1020.1
20260510123544 16 263 0.0 0.0 0.00 0.00 0.00 91 1015.7
20260510123041 15 272 0.0 0.0 0.00 0.00 0.00 95 1015.9
20260510123038 15 0.0 0.0 0.00 0.00 0.00 98 1019.9
20260510122536 15 333 0.0 0.0 0.00 0.00 0.00 99 1015.7
20260510122053 14 0.0 0.0 0.00 0.00 0.00 99 1019.8
20260510122033 14 334 0.0 0.0 0.00 0.00 0.00 99 1015.7
20260510121538 13 0.0 0.0 0.00 0.00 0.00 99 1019.7
20260510121530 14 334 0.0 0.0 0.00 0.00 0.00 99 1015.6
20260510121027 13 333 0.0 1.6 0.00 0.00 0.00 99 1015.4
20260510120531 13 0.0 0.0 0.00 0.00 0.00 99 1019.6
20260510120525 13 340 0.0 0.0 0.00 0.00 0.00 99 1015.4
20260510120020 13 340 0.0 0.0 0.00 0.00 0.00 99 1015.3
20260510115525 13 0.0 0.0 0.00 0.00 0.00 99 1019.4
20260510115517 13 340 0.0 0.0 0.00 0.00 0.00 99 1015.2
20260510115014 13 340 0.0 0.0 0.00 0.00 0.00 99 1015.2
20260510114519 12 0.0 0.0 0.00 0.00 0.00 99 1019.3
20260510114510 12 340 0.0 0.0 0.00 0.00 0.00 99 1015.1
20260510114006 12 340 0.0 0.0 0.00 0.00 0.00 99 1015.1
20260510113554 12 0.0 0.0 0.00 0.00 0.00 99 1019.2
20260510113501 12 340 0.0 0.0 0.00 0.00 0.00 99 1015.0
20260510112959 12 340 0.0 0.0 0.00 0.00 0.00 99 1015.1
20260510112550 11 0.0 0.0 0.00 0.00 0.00 99 1019.1
20260510112456 11 340 0.0 0.0 0.00 0.00 0.00 99 1014.9
20260510111952 11 340 0.0 0.0 0.00 0.00 0.00 99 1014.8
20260510111448 11 340 0.0 0.0 0.00 0.00 0.00 99 1014.9
20260510110944 11 341 0.0 0.0 0.00 0.00 0.00 99 1014.6
20260510110441 11 340 0.0 0.0 0.00 0.00 0.00 99 1014.6
20260510105937 11 340 0.0 0.0 0.00 0.00 0.00 99 1014.5
20260510105432 11 340 0.0 0.0 0.00 0.00 0.00 99 1014.5
20260510104927 11 340 0.0 0.0 0.00 0.00 0.00 99 1014.4
20260510104425 11 340 0.0 0.0 0.00 0.00 0.00 99 1014.3
20260510103921 11 340 0.0 0.0 0.00 0.00 0.00 99 1014.3
20260510103419 11 340 0.0 0.0 0.00 0.00 0.00 99 1014.2
20260510102914 11 340 0.0 0.0 0.00 0.00 0.00 99 1014.0
20260510102410 11 341 0.0 0.0 0.00 0.00 0.00 99 1014.1
20260510101908 11 341 0.0 0.0 0.00 0.00 0.00 99 1014.2
20260510101406 11 341 0.0 0.0 0.00 0.00 0.00 99 1014.2
20260510100902 11 342 0.0 0.0 0.00 0.00 0.00 99 1014.0
20260510100359 11 342 0.0 0.0 0.00 0.00 0.00 99 1014.1
20260510095855 11 342 0.0 0.0 0.00 0.00 0.00 99 1014.2
20260510095350 12 342 0.0 0.0 0.00 0.00 0.00 99 1014.0
20260510094850 12 344 0.0 0.0 0.00 0.00 0.00 99 1013.9
20260510094345 12 257 0.0 0.0 0.00 0.00 0.00 99 1013.7
20260510093842 11 137 0.0 0.0 0.00 0.00 0.00 99 1013.7
20260510093337 11 139 0.0 0.0 0.00 0.00 0.00 99 1013.6
20260510092834 11 187 0.0 0.0 0.00 0.00 0.00 99 1013.7
20260510092330 11 184 0.0 0.0 0.00 0.00 0.00 99 1013.5
20260510091826 11 184 0.0 0.0 0.00 0.00 0.00 99 1013.4
20260510091323 11 184 0.0 0.0 0.00 0.00 0.00 99 1013.6
20260510090819 11 184 0.0 0.0 0.00 0.00 0.00 99 1013.5
20260510090317 11 184 0.0 0.0 0.00 0.00 0.00 99 1013.6
20260510085812 11 182 0.0 0.0 0.00 0.00 0.00 99 1013.5
20260510085307 11 182 0.0 0.0 0.00 0.00 0.00 99 1013.5
20260510084803 11 182 0.0 0.0 0.00 0.00 0.00 99 1013.4
20260510084300 11 182 0.0 0.0 0.00 0.00 0.00 99 1013.2
20260510083756 11 182 0.0 0.0 0.00 0.00 0.00 99 1013.4
20260510083254 11 182 0.0 0.0 0.00 0.00 0.00 99 1013.4
20260510082749 11 182 0.0 0.0 0.00 0.00 0.00 99 1013.3
20260510082246 11 183 0.0 0.0 0.00 0.00 0.00 99 1013.3
20260510081745 11 183 0.0 0.0 0.00 0.00 0.00 99 1013.1
20260510081241 11 183 0.0 0.0 0.00 0.00 0.00 99 1012.9
20260510080736 11 183 0.0 0.0 0.00 0.00 0.00 99 1013.0
20260510080232 12 183 0.0 0.0 0.00 0.00 0.00 99 1012.8
20260510075729 12 183 0.0 0.0 0.00 0.00 0.00 99 1012.9
20260510075227 12 183 0.0 0.0 0.00 0.00 0.00 99 1012.8
20260510074724 12 183 0.0 0.0 0.00 0.00 0.00 99 1012.9
20260510074220 12 183 0.0 0.0 0.00 0.00 0.00 99 1012.7
20260510073717 12 183 0.0 0.0 0.00 0.00 0.00 99 1012.6
20260510073212 12 183 0.0 0.0 0.00 0.00 0.00 99 1012.6
20260510072708 12 183 0.0 0.0 0.00 0.00 0.00 99 1012.8
20260510072205 12 183 0.0 0.0 0.00 0.00 0.00 99 1012.9
20260510071702 12 183 0.0 0.0 0.00 0.00 0.00 99 1012.7
20260510071159 12 183 0.0 0.0 0.00 0.00 0.00 99 1012.7
20260510070656 12 183 0.0 0.0 0.00 0.00 0.00 99 1012.8
20260510070154 12 183 0.0 0.0 0.00 0.00 0.00 99 1012.7
20260510065649 12 183 0.0 0.0 0.00 0.00 0.00 99 1012.6
20260510065145 12 183 0.0 0.0 0.00 0.00 0.00 99 1012.7
20260510064642 12 183 0.0 0.0 0.00 0.00 0.00 99 1012.6
20260510064139 12 183 0.0 0.0 0.00 0.00 0.00 99 1012.7
20260510063636 12 183 0.0 0.0 0.00 0.00 0.00 99 1012.8
20260510063132 12 183 0.0 0.0 0.00 0.00 0.00 99 1012.6
20260510062628 12 182 0.0 0.0 0.00 0.00 0.00 99 1012.8
20260510062124 12 181 0.0 0.0 0.00 0.00 0.00 99 1012.8
20260510061620 12 173 0.0 0.0 0.00 0.00 0.00 99 1012.6
20260510061118 12 180 0.0 0.0 0.00 0.00 0.00 99 1012.8
20260510060613 12 180 0.0 0.0 0.00 0.00 0.00 99 1012.7
20260510060110 12 180 0.0 0.0 0.00 0.00 0.00 98 1012.6
20260510055606 13 180 0.0 0.0 0.00 0.00 0.00 98 1012.6
20260510055105 13 180 0.0 0.0 0.00 0.00 0.00 97 1012.7
20260510054600 13 180 0.0 0.0 0.00 0.00 0.00 97 1012.6
20260510054055 13 180 0.0 0.0 0.00 0.00 0.00 97 1012.6
20260510053555 13 180 0.0 0.0 0.00 0.00 0.00 97 1012.7
20260510053052 13 180 0.0 0.0 0.00 0.00 0.00 97 1012.9
20260510052548 13 180 0.0 0.0 0.00 0.00 0.00 97 1012.6
20260510052044 13 180 0.0 0.0 0.00 0.00 0.00 97 1012.8
20260510051540 13 180 0.0 0.0 0.00 0.00 0.00 97 1012.6
20260510051036 13 180 0.0 0.0 0.00 0.00 0.00 96 1012.8
20260510050534 13 180 0.0 0.0 0.00 0.00 0.00 96 1012.8
20260510050031 13 180 0.0 0.0 0.00 0.00 0.00 96 1012.8
20260510045528 13 180 0.0 0.0 0.00 0.00 0.00 96 1012.8
20260510045024 13 180 0.0 0.0 0.00 0.00 0.00 96 1012.7
20260510044521 13 176 0.0 0.0 0.00 0.00 0.00 96 1012.4
20260510044019 13 176 0.0 0.0 0.00 0.00 0.00 96 1012.6
20260510043514 13 172 0.0 0.0 0.00 0.00 0.00 96 1012.7
20260510043009 13 8 0.0 0.0 0.00 0.00 0.00 96 1012.6
20260510042503 13 357 0.0 0.0 0.00 0.00 0.00 96 1012.7
20260510041958 13 358 0.0 0.0 0.00 0.00 0.00 96 1012.6
20260510041455 13 84 0.0 0.0 0.00 0.00 0.00 96 1012.6
20260510040954 13 210 0.0 0.0 0.00 0.00 0.00 96 1012.5
20260510040450 13 342 0.0 0.0 0.00 0.00 0.00 96 1012.5
20260510035946 13 342 0.0 0.0 0.00 0.00 0.00 96 1012.6
20260510035442 13 342 0.0 0.0 0.00 0.00 0.00 96 1012.5
20260510034936 13 342 0.0 0.0 0.00 0.00 0.00 96 1012.5
20260510034435 13 342 0.0 0.0 0.00 0.00 0.00 96 1012.5
20260510033931 13 342 0.0 0.0 0.00 0.00 0.00 96 1012.5
20260510033427 13 342 0.0 0.0 0.00 0.00 0.00 96 1012.5
20260510032924 13 342 0.0 0.0 0.00 0.00 0.00 96 1012.4
20260510032422 13 342 0.0 0.0 0.00 0.00 0.00 96 1012.5
20260510031917 13 342 0.0 1.6 0.00 0.00 0.00 96 1012.2
20260510031413 13 342 0.0 0.0 0.00 0.00 0.00 95 1012.2
20260510030912 13 342 0.0 0.0 0.00 0.00 0.00 95 1012.2
20260510030409 13 342 0.0 0.0 0.00 0.00 0.00 95 1012.3
20260510025907 13 342 0.0 0.0 0.00 0.00 0.00 94 1012.1
20260510025404 14 342 0.0 0.0 0.00 0.00 0.00 94 1012.2
20260510024901 14 342 0.0 0.0 0.00 0.00 0.00 93 1012.2
20260510024357 14 342 0.0 0.0 0.00 0.00 0.00 93 1012.1
20260510023853 14 342 0.0 0.0 0.00 0.00 0.00 92 1012.2
20260510023350 14 342 0.0 0.0 0.00 0.00 0.00 92 1011.9
20260510022848 15 342 0.0 0.0 0.00 0.00 0.00 91 1012.0
20260510022347 15 342 0.0 0.0 0.00 0.00 0.00 91 1012.0
20260510021845 15 342 0.0 0.0 0.00 0.00 0.00 90 1012.1
20260510021344 15 342 0.0 0.0 0.00 0.00 0.00 89 1012.1
20260510020840 15 342 0.0 0.0 0.00 0.00 0.00 88 1011.9
20260510020340 16 342 0.0 1.6 0.00 0.00 0.00 87 1011.9
20260510015836 16 342 0.0 1.6 0.00 0.00 0.00 86 1011.8
20260510015332 16 342 0.0 1.6 0.00 0.00 0.00 86 1011.7
20260510014827 16 342 0.0 1.6 0.00 0.00 0.00 86 1011.7
20260510014325 16 342 0.0 0.0 0.00 0.00 0.00 86 1011.6
20260510013821 16 342 0.0 1.6 0.00 0.00 0.00 87 1011.5
20260510013317 16 342 0.0 1.6 0.00 0.00 0.00 87 1011.5
20260510012812 16 338 0.0 0.0 0.00 0.00 0.00 86 1011.4
20260510012307 16 339 0.0 1.6 0.00 0.00 0.00 86 1011.5
20260510011801 16 345 1.6 1.6 0.00 0.00 0.00 85 1011.6
20260510011257 16 345 1.6 1.6 0.00 0.00 0.00 85 1011.5
20260510010754 16 348 1.6 1.6 0.00 0.00 0.00 85 1011.4
20260510010250 16 27 0.0 0.0 0.00 0.00 0.00 84 1011.4
20260510005748 16 338 0.0 0.0 0.00 0.00 0.00 84 1011.2
20260510005244 16 311 0.0 0.0 0.00 0.00 0.00 85 1011.3
20260510004742 16 314 0.0 0.0 0.00 0.00 0.00 84 1011.1
20260510004239 17 261 0.0 0.0 0.00 0.00 0.00 83 1011.0
20260510003736 17 11 0.0 0.0 0.00 0.00 0.00 82 1011.1
20260510003233 17 316 0.0 0.0 0.00 0.00 0.00 82 1011.0
20260510002731 17 327 0.0 0.0 0.00 0.00 0.00 81 1010.9
20260510002229 17 299 0.0 0.0 0.00 0.00 0.00 79 1010.9
20260510001725 18 270 0.0 0.0 0.00 0.00 0.00 79 1010.9
20260510001224 18 6 0.0 0.0 0.00 0.00 0.00 76 1010.9
20260510000720 18 260 0.0 0.0 0.00 0.00 0.00 77 1010.7
20260510000219 18 29 0.0 0.0 0.00 0.00 0.00 75 1010.7
20260509235714 19 343 0.0 0.0 0.00 0.00 0.00 74 1010.7
20260509235210 20 299 0.0 0.0 0.00 0.00 0.00 73 1010.7
20260509234707 20 315 0.0 0.0 0.00 0.00 0.00 72 1010.6
20260509234204 20 279 0.0 0.0 0.00 0.00 0.00 70 1010.6
20260509233702 20 278 0.0 0.0 0.00 0.00 0.00 69 1010.6
20260509233159 20 278 0.0 0.0 0.00 0.00 0.00 68 1010.5
20260509232655 20 302 0.0 0.0 0.00 0.00 0.00 66 1010.7
20260509232152 21 269 0.0 0.0 0.00 0.00 0.00 68 1010.7
20260509231649 21 269 0.0 0.0 0.00 0.00 0.00 66 1010.5
20260509231146 21 273 0.0 0.0 0.00 0.00 0.00 67 1010.5
20260509230643 21 271 0.0 1.6 0.00 0.00 0.00 63 1010.5
20260509230140 22 261 0.0 0.0 0.00 0.00 0.00 64 1010.4
20260509225636 22 261 0.0 0.0 0.00 0.00 0.00 65 1010.4
20260509225131 22 279 0.0 0.0 0.00 0.00 0.00 63 1010.3
20260509224627 22 289 0.0 0.0 0.00 0.00 0.00 59 1010.5
20260509224124 22 269 0.0 0.0 0.00 0.00 0.00 59 1010.4
20260509223620 22 291 0.0 0.0 0.00 0.00 0.00 60 1010.5
20260509223119 23 284 0.0 0.0 0.00 0.00 0.00 59 1010.6
20260509222614 23 269 0.0 0.0 0.00 0.00 0.00 57 1010.6
20260509222110 23 305 0.0 1.6 0.00 0.00 0.00 55 1010.5
20260509221606 23 265 0.0 0.0 0.00 0.00 0.00 56 1010.5
20260509221103 23 263 0.0 3.2 0.00 0.00 0.00 59 1010.5
20260509220558 23 279 0.0 0.0 0.00 0.00 0.00 57 1010.7
20260509220055 23 290 1.6 4.8 0.00 0.00 0.00 56 1010.6
20260509215550 24 250 1.6 4.8 0.00 0.00 0.00 53 1010.5
20260509215048 24 271 1.6 4.8 0.00 0.00 0.00 51 1010.6
20260509214545 25 278 3.2 6.4 0.00 0.00 0.00 53 1010.5
20260509214042 24 270 1.6 3.2 0.00 0.00 0.00 53 1010.5
20260509213538 24 278 1.6 3.2 0.00 0.00 0.00 52 1010.6
20260509213035 24 274 3.2 6.4 0.00 0.00 0.00 52 1010.5
20260509212532 23 273 1.6 6.4 0.00 0.00 0.00 55 1010.5
20260509212029 23 317 3.2 3.2 0.00 0.00 0.00 53 1010.5
20260509211524 24 254 3.2 4.8 0.00 0.00 0.00 55 1010.4
20260509211021 24 283 3.2 3.2 0.00 0.00 0.00 55 1010.5
20260509210518 24 266 3.2 3.2 0.00 0.00 0.00 57 1010.2
20260509210015 23 277 3.2 4.8 0.00 0.00 0.00 56 1010.4
20260509205509 23 284 4.8 4.8 0.00 0.00 0.00 57 1010.5
20260509205005 24 288 4.8 6.4 0.00 0.00 0.00 56 1010.3